GW2818 Weather Reports


Display with metric or nautical units.
time (UTC)temp
F
wind
direction
speed
MPH
gust
MPH
rain 1hr
in
rain 24hr
in
rain mn
in
humidity
%
barometer
mb
20260904000126 67 0 0.0 0.0 0.07 2.00 1.42 92 1015.9
20260903234545 67 0 0.0 0.0 0.10 2.00 1.42 93 1016.6
20260903233050 68 0 0.0 2.0 0.12 2.00 1.42 93 1017.2
20260903231555 68 0 0.0 3.0 0.12 1.93 1.35 93 1017.8
20260903230103 69 0 0.0 6.0 0.49 1.93 1.35 93 1017.3
20260903224555 69 143 0.0 6.0 0.70 1.90 1.32 93 1018.6
20260903223045 69 123 0.0 0.0 0.67 1.87 1.29 93 1017.1
20260903221550 70 232 0.0 7.0 0.60 1.80 1.22 92 1017.4
20260903220043 73 59 2.0 7.0 0.22 1.42 0.84 88 1016.3
20260903214554 80 0 0.0 0.0 0.00 1.20 0.62 89 1014.7
20260903213049 81 0 0.0 0.0 0.00 1.20 0.62 88 1015.3
20260903211545 81 0 0.0 0.0 0.00 1.20 0.62 87 1015.0
20260903210052 82 0 0.0 0.0 0.00 1.20 0.62 85 1014.1
20260903204549 83 0 0.0 0.0 0.00 1.20 0.62 84 1014.3
20260903203045 84 0 0.0 0.0 0.00 1.20 0.62 82 1015.0
20260903201546 85 0 0.0 2.0 0.00 1.20 0.62 80 1014.8
20260903200044 85 255 0.0 4.0 0.00 1.20 0.62 79 1014.9
20260903194554 85 0 0.0 2.0 0.00 1.20 0.62 80 1015.0
20260903193051 86 0 0.0 0.0 0.00 1.20 0.62 79 1015.6
20260903191547 87 0 0.0 2.0 0.00 1.20 0.62 77 1015.9
20260903190057 87 167 0.0 2.0 0.00 1.20 0.62 76 1016.4
20260903184549 86 146 0.0 3.0 0.00 1.20 0.62 76 1016.5
20260903183043 85 0 0.0 3.0 0.00 1.20 0.62 78 1016.6
20260903181552 84 161 0.0 3.0 0.00 1.20 0.62 78 1016.9
20260903180051 82 165 0.0 5.0 0.00 1.20 0.62 81 1016.9
20260903174543 80 158 1.0 4.0 0.00 1.20 0.62 83 1017.3
20260903173048 79 0 0.0 2.0 0.00 1.20 0.62 89 1017.4
20260903171547 78 0 0.0 3.0 0.00 1.20 0.62 90 1017.5
20260903170054 77 0 0.0 2.0 0.00 1.20 0.62 93 1017.5
20260903164551 75 176 1.0 5.0 0.00 1.20 0.62 93 1017.5
20260903163102 74 0 0.0 4.0 0.00 1.20 0.62 93 1017.6
20260903161548 73 0 1.0 3.0 0.00 1.20 0.62 93 1017.8
20260903160044 72 0 0.0 3.0 0.00 1.20 0.62 93 1017.9
20260903154550 71 0 0.0 3.0 0.00 1.20 0.62 93 1018.3
20260903153050 70 0 0.0 3.0 0.04 1.20 0.62 93 1019.2
20260903151552 70 178 0.0 1.0 0.04 1.20 0.62 93 1019.4
20260903150110 69 0 0.0 0.0 0.04 1.20 0.62 93 1019.5
20260903144545 68 0 1.0 2.0 0.06 1.20 0.62 93 1019.3
20260903143047 68 0 0.0 0.0 0.20 1.16 0.58 93 1019.6
20260903141555 68 0 0.0 0.0 0.27 1.16 0.58 93 1019.0
20260903140047 68 261 0.0 2.0 0.46 1.16 0.58 93 1019.1
20260903134548 68 0 0.0 2.0 0.44 1.13 0.55 93 1019.4
20260903133046 68 0 0.0 4.0 0.27 0.96 0.38 93 1020.1
20260903131544 68 44 0.0 2.0 0.20 0.89 0.31 93 1019.0
20260903130051 68 0 0.0 1.0 0.01 0.70 0.12 93 1020.8
20260903124558 69 0 0.0 0.0 0.01 0.69 0.11 93 1019.7
20260903123044 68 0 0.0 0.0 0.11 0.69 0.11 93 1019.2
20260903121548 68 0 0.0 0.0 0.11 0.69 0.11 93 1019.3
20260903120052 68 0 0.0 2.0 0.11 0.69 0.11 93 1019.2
20260903114610 69 0 0.0 6.0 0.09 0.67 0.09 93 1019.6
20260903113044 71 82 1.0 7.0 0.00 0.58 0.00 93 1019.4
20260903111559 72 0 0.0 1.0 0.00 0.58 0.00 93 1017.6
20260903110046 72 0 0.0 0.0 0.00 0.58 0.00 93 1017.2
20260903104543 72 0 0.0 0.0 0.00 0.58 0.00 93 1017.3
20260903103101 72 0 0.0 0.0 0.00 0.58 0.00 93 1017.4
20260903101551 72 0 0.0 0.0 0.00 0.58 0.00 93 1017.2
20260903100048 72 0 0.0 0.0 0.00 0.58 0.00 93 1017.0
20260903094549 72 0 0.0 0.0 0.00 0.58 0.00 93 1017.0
20260903093122 72 0 0.0 0.0 0.00 0.58 0.00 93 1017.1
20260903091553 72 0 0.0 0.0 0.00 0.58 0.00 93 1017.0
20260903090046 72 0 0.0 0.0 0.00 0.58 0.00 93 1017.2
20260903084542 73 0 0.0 0.0 0.00 0.58 0.00 93 1017.3
20260903083046 73 0 0.0 0.0 0.00 0.58 0.00 93 1017.2
20260903081553 73 0 0.0 0.0 0.00 0.58 0.00 93 1017.1
20260903080048 73 0 0.0 0.0 0.00 0.58 0.00 93 1016.8
20260903074553 73 0 0.0 1.0 0.00 0.58 0.00 93 1016.6
20260903073052 73 0 0.0 0.0 0.00 0.58 0.00 93 1016.5
20260903071616 73 0 0.0 0.0 0.00 0.58 0.00 93 1016.4
20260903070100 73 0 0.0 0.0 0.00 0.58 0.00 93 1016.4
20260903064541 73 0 0.0 0.0 0.00 0.58 0.00 93 1016.5
20260903063055 73 0 0.0 0.0 0.00 0.58 0.00 93 1016.6
20260903061550 73 0 0.0 0.0 0.00 0.58 0.00 93 1016.6
20260903060046 73 0 0.0 0.0 0.00 0.58 0.00 93 1016.8
20260903054546 73 0 0.0 0.0 0.00 0.58 0.00 93 1016.7
20260903053049 74 0 0.0 0.0 0.00 0.58 0.00 93 1016.8
20260903051546 74 0 0.0 0.0 0.00 0.58 0.00 93 1016.8
20260903044559 74 0 0.0 0.0 0.00 0.58 0.00 93 1016.5
20260903043048 74 0 0.0 0.0 0.00 0.58 0.00 93 1016.3
20260903041543 74 0 0.0 0.0 0.00 0.58 0.00 93 1016.2
20260903040059 74 0 0.0 0.0 0.00 0.58 0.00 93 1015.9
20260903034551 74 0 0.0 0.0 0.00 0.58 0.58 93 1015.9
20260903033046 74 0 0.0 0.0 0.00 0.58 0.58 93 1016.3
20260903031542 74 0 0.0 0.0 0.00 0.58 0.58 93 1016.5
20260903030050 74 0 0.0 0.0 0.01 0.58 0.58 93 1016.6
20260903024549 74 0 0.0 0.0 0.42 0.58 0.58 93 1016.7
20260903023047 75 0 0.0 1.0 0.57 0.58 0.58 93 1016.9
20260903021544 75 0 0.0 2.0 0.58 0.58 0.58 93 1017.3
20260903020044 76 0 0.0 1.0 0.57 0.57 0.57 93 1017.0
20260903014607 78 0 0.0 0.0 0.14 0.14 0.14 92 1018.2
20260903013101 79 0 0.0 0.0 0.01 0.01 0.01 89 1017.2
20260903011542 79 0 0.0 0.0 0.00 0.00 0.00 87 1016.7
20260903010042 79 0 0.0 0.0 0.00 0.00 0.00 85 1016.7
20260903004554 80 0 0.0 0.0 0.00 0.00 0.00 84 1016.5
20260903003104 80 0 0.0 0.0 0.00 0.00 0.00 83 1016.5
20260903001544 81 0 0.0 0.0 0.00 0.00 0.00 82 1016.5